Мурованые Куриловцы

Украина / Винницкая область     48°43′15″N   27°31′32″E
темп.,
°C
ветер,
м/с
пор.,
м/с
влажн.,
%
обл.,
%
осадки,
мм/ч
давл.,
гПа
погр.,
м
21 апреля, ср
ср2100:00+6сз227935 0.0 101219
03:00+5зсз2285100 0.0 101222
06:00+5зсз2391100 0.0 101250
09:00+9сз347652 0.2 1014527
12:00+12зсз455476 0.2 10141614
15:00+14зсз4548100 0.4 10131848
18:00+14зюз3548100 0.0 10131487
21:00+10юз336141 0.1 101534
22 апреля, чт
чт2200:00+8юз347355 0.1 101662
03:00+7ююз2377100 0.1 101635
06:00+6ююз228097 0.0 101621
09:00+11юз346489 0.0 1017298
12:00+16юз564534 0.0 10161821
15:00+16юз4644100 0.0 10151997
18:00+11з3777100 1.4 1016227
21:00+9сз128519 2.0 101635
23 апреля, пт
пт2300:00+8зсз37905 0.5 1015169
03:00+4ссз499478 0.5 1017405
06:00+5сз4889100 0.3 1018428
09:00+6сз2374100 0.5 1019690
12:00+8сз3459100 0.1 10191470
15:00+10зсз354599 0.3 10191974
18:00+10сз6747100 0.0 10181689
21:00+6зсз366798 0.2 1020118
24 апреля, сб
сб2400:00+3з37765 0.0 1020132
03:00+3з6138199 0.0 1020642
06:00+2зсз712735 0.0 1021839
09:00+4зсз813565 0.0 10221547
12:00+7сз91139100 0.0 10232688
15:00+8сз81039100 0.0 10222662
18:00+8сз694560 0.0 10221834
21:00+4зсз225820 0.0 102313
25 апреля, вс
вс2500:00+4зюз2259100 0.0 102319
03:00+3юз226383 0.0 102222
06:00+2юз3564100 0.0 102178
09:00+6зсз5761100 0.0 1021657
12:00+8сз686099 0.3 10211568
15:00+8сз695294 0.4 10211865
18:00+7ссз784761 0.0 10221702
21:00+3сз34690 0.0 102376